Flag for Germany Weather past 2 weeks in Ansbach, Bavaria, Germany

Now
61 °F

Cloudy.


Feels Like: 61 °F
Forecast: 45 / 60 °F
Wind: 12 mph from West

Location: Ansbach / Katterbach

Current Time: Oct 20, 2014 at 3:47:52 PM

Latest Report: Oct 20, 2014 at 2:58 PM


Visibility: N/A

Pressure: 30.09 "Hg

Humidity: 100%

Dew point: 61 °F

Location of AnsbachLocation

Historic Weather in Ansbach — Graph

°F

Ansbach temperature yesterday

Maximum temperature yesterday: 68 °F (at 4:58 PM)
Minimum temperature yesterday: 48 °F (at 7:03 AM)
Average temperature yesterday: 56 °F

Past Weeks' High & Low Weather Summary

 TemperatureHumidityPressure
High75 °F (Oct 9, 2:58 PM)100% (Oct 5, 10:58 PM)30.29 "Hg (Oct 5, 10:58 PM)
Low44 °F (Oct 6, 6:58 AM)44% (Oct 9, 2:58 PM)29.79 "Hg (Oct 16, 12:02 AM)
Average56 °F93%29.97 "Hg
* Reported Oct 5 2:58 PM — Oct 20 2:58 PM, Ansbach, Weather by CustomWeather, © 2014

Note: Actual official high and low records may vary slightly from our data, if they occured in-between our weather recording intervals... More about our weather records

Advertising

Ansbach weather history for previous 24 hours

 ConditionsComfort  
Time TempWeatherWind HumidityBarometerVisibility
2:58 PM
Oct 20
61 °FCloudy.12 mph100%30.09 "HgN/A
1:58 PM61 °FCloudy.6 mph100%30.10 "HgN/A
1:02 PM59 °FLow clouds.6 mph100%30.10 "HgN/A
12:58 PM60 °FDrizzle. Low clouds.8 mph100%30.12 "HgN/A
12:03 PM61 °FDrizzle. Mostly cloudy.10 mph94%30.11 "HgN/A
11:58 AM61 °FMostly cloudy.8 mph92%30.12 "HgN/A
10:58 AM60 °FCloudy.8 mph100%30.12 "HgN/A
9:58 AM61 °FOvercast.6 mph94%30.12 "HgN/A
8:58 AM60 °FOvercast.6 mph94%30.13 "HgN/A
7:58 AM59 °FMostly cloudy.7 mph94%30.12 "HgN/A
6:58 AM57 °FPartly cloudy.7 mph100%30.11 "HgN/A
4:58 AM58 °FPassing clouds.8 mph93%30.11 "HgN/A
3:58 AM57 °FClear.6 mph92%30.13 "HgN/A
2:58 AM59 °FClear.12 mph85%30.12 "HgN/A
1:58 AM59 °FClear.9 mph81%30.14 "HgN/A
12:58 AM59 °FClear.9 mph82%30.14 "HgN/A
11:58 PM
Oct 19
60 °FClear.9 mph79%30.14 "HgN/A
10:58 PM61 °FClear.5 mph77%30.14 "HgN/A
9:58 PM60 °FClear.6 mph84%30.15 "HgN/A
8:58 PM61 °FClear.5 mph88%30.15 "HgN/A
7:58 PM63 °FClear.5 mph83%30.15 "HgN/A
6:58 PM64 °FSunny.6 mph78%30.15 "HgN/A
5:58 PM66 °FSunny.3 mph78%30.15 "HgN/A
4:58 PM68 °FSunny.6 mph77%30.14 "HgN/A
3:58 PM68 °FSunny.8 mph78%30.14 "HgN/A
Weather by CustomWeather, © 2014

See weather overviewHow to use our weather pages